Regional Weather Roundup
Issued by NWS

Home | Current Version | Previous Version | Graphics & Text | Print | Product List | Glossary On
Versions: 1 2 3 4 5 6 7 8 9 10 11 12 13 14 15 16 17 18 19 20 21 22 23 24 25 26 27 28 29 30 31 32 33 34 35 36 37 38 39 40 41 42 43 44 45 46 47 48 49 50
000
ASUS43 KLMK 241910
RWRKY
KENTUCKY REGIONAL WEATHER ROUNDUP
NATIONAL WEATHER SERVICE LOUISVILLE KY
300 PM EDT THU JUL 24 2014

NOTE "FAIR" INDICATES FEW OR NO CLOUDS BELOW 12,000 FEET
WITH NO SIGNIFICANT WEATHER AND/OR OBSTRUCTIONS TO VISIBILITY.

KYZ001>023-026-027-061>063-070>075-242000-
WESTERN AND SOUTH CENTRAL KENTUCKY

CITY           SKY/WX    TMP DP  RH WIND       PRES   REMARKS
PADUCAH        PTSUNNY   78  62  57 NE8       30.05F
HENDERSON      MOSUNNY   79  57  47 NE7       30.05S
OWENSBORO      PTSUNNY   79  56  45 VRB7      30.06R
HOPKINSVILLE   MOSUNNY   79  63  57 N8        30.02F
BOWLING GREEN  MOSUNNY   84  59  42 VRB7      30.00F
GLASGOW        MOSUNNY   80  57  45 N6        30.01S
$$

KYZ024-025-028>034-038-045-046-053-242000-
NORTH CENTRAL KENTUCKY

CITY           SKY/WX    TMP DP  RH WIND       PRES   REMARKS
LOUISVILLE/SDF PTSUNNY   79  54  41 N14G20    30.05R
LOUISVILLE/LOU PTSUNNY   77  54  44 NE12G18   30.05S
FORT KNOX      SUNNY     78  55  46 NW12G20   30.04R
$$

KYZ035>037-039>044-047>052-055>060-089>105-242000-
NORTHEAST KENTUCKY

CITY           SKY/WX    TMP DP  RH WIND       PRES   REMARKS
LEXINGTON      PTSUNNY   76  59  55 NE12      30.04F
COVINGTON      PTSUNNY   75  51  43 NE13G21   30.06S
FRANKFORT      PTSUNNY   74  54  49 N9G17     30.04F
$$

KYZ054-064>069-076>088-106>120-242000-
SOUTHEAST KENTUCKY

CITY           SKY/WX    TMP DP  RH WIND       PRES   REMARKS
JACKSON        CLOUDY    66  63  90 CALM      30.03R
LONDON         CLOUDY    71  64  78 N12       30.02S
SOMERSET       CLOUDY    72  63  73 N8        30.03S
MIDDLESBORO    CLOUDY    80  67  66 NW9       29.98S
MONTICELLO     MOCLDY    74  67  78 CALM      30.03F
$$




USA.gov is the U.S. government's official web portal to all federal, state and local government web resources and services.